Vorticity
nan nan nan nan nan nan nan nan nan nan nan nan nan nan nan nan nan nan nan nan nan nan
nan 13 13 12 12 12 10 10 9 9 9 8 9 8 9 9 8 9 8 7 9 nan
nan 11 12 10 9 9 9 9 8 9 9 8 8 8 9 8 8 9 9 8 9 nan
nan 10 9 9 8 8 9 8 9 8 8 8 8 8 9 8 8 8 9 9 9 nan
nan 8 8 8 9 8 9 9 9 9 9 8 8 9 8 8 8 8 9 9 9 nan
nan 8 7 8 9 9 8 9 10 10 9 8 8 8 8 8 8 9 9 9 8 nan
nan 8 8 8 8 9 10 10 9 10 9 8 8 8 8 8 8 8 8 9 9 nan
nan 9 8 8 9 9 10 10 11 9 8 8 7 9 9 8 8 7 8 9 9 nan
nan 8 8 8 9 9 10 10 10 9 9 8 5 5 9 11 9 8 8 9 9 nan
nan 8 9 9 9 9 9 9 9 9 8 8 5 4 6 11 12 9 9 9 8 nan
nan 8 9 9 9 9 10 9 8 8 8 7 6 5 6 12 14 9 9 10 10 nan
nan 9 9 9 8 8 9 9 9 9 8 8 6 5 9 12 11 9 10 11 10 nan
nan 10 9 9 7 8 10 11 9 9 8 8 6 5 8 12 13 9 11 10 8 nan
nan nan nan nan nan nan nan nan nan nan nan nan nan nan nan nan nan nan nan nan nan nan
CAPE
0 0 0 0 0 0 0 0 0 0 0 0 0 0 0 0 0 0 0 0 0 0
0 0 0 0 0 0 0 0 0 0 0 0 0 0 0 0 0 0 0 0 0 0
0 0 0 0 0 0 0 0 0 0 0 0 0 0 0 0 0 0 0 0 0 0
0 0 0 0 0 0 0 0 0 0 0 0 0 0 0 0 0 0 0 0 0 0
0 0 0 0 0 0 0 0 0 0 0 0 0 0 0 0 0 0 0 0 0 0
0 0 0 0 0 0 0 0 0 0 0 0 0 0 0 0 0 0 0 0 0 0
0 0 0 0 0 0 0 0 0 0 0 0 0 0 0 0 0 0 0 0 0 0
0 0 0 0 0 0 0 0 0 0 0 0 0 0 0 0 0 0 0 0 0 0
0 0 0 0 0 0 0 0 0 0 0 0 0 0 0 0 0 0 0 0 0 0
0 0 0 0 0 0 0 0 0 0 0 0 0 0 1 0 0 0 0 0 0 0
0 0 0 0 0 0 0 0 0 0 0 0 0 0 0 0 0 0 0 0 0 0
0 0 0 0 0 0 0 0 0 0 0 0 0 0 0 0 0 0 0 0 0 0
0 0 0 0 0 0 0 0 0 0 0 0 0 0 0 0 0 0 2 0 0 0
0 0 0 0 0 0 0 0 0 0 0 0 0 0 0 1 0 1 5 1 1 1